Regional Weather Roundup
Issued by NWS

Home | Current Version | Previous Version | Text Only | Print | Product List | Glossary On
Versions: 1 2 3 4 5 6 7 8 9 10 11 12 13 14 15 16 17 18 19 20 21 22 23 24 25 26 27
000
ASUS45 KSLC 310910
RWRUT

UTAH REGIONAL WEATHER ROUNDUP
NATIONAL WEATHER SERVICE SALT LAKE CITY UT
300 AM MDT FRI OCT 31 2014

UTZ001>011-023>025-311000-

NORTHERN UTAH

CITY           SKY/WX    TMP DP  RH WIND       PRES   REMARKS
BRIGHAM CITY   MOCLDY    43  34  70 CALM      30.06F
HILL AFB       MOCLDY    54  26  34 E10       30.06F
LOGAN          CLEAR     38  32  79 CALM      30.06F
OGDEN          MOCLDY    56  26  31 SE7       30.05F
PROVO AIRPORT  MOCLDY    48  27  43 N3        30.10S
SALT LAKE CITY MOCLDY    56  26  31 SE9       30.05F
VERNAL         PTCLDY    36  26  67 CALM      30.22F
WENDOVER       MOCLDY    43  28  56 CALM      30.05S
HEBER CITY     MOCLDY    32  27  80 CALM      30.17F
WEST JORDAN    CLEAR     52  32  46 SE9       30.09S

$$

UTZ012>022-026-027-311000-

SOUTHERN/CENTRAL UTAH

CITY           SKY/WX    TMP DP  RH WIND       PRES   REMARKS
BLANDING       MOCLDY    44  20  38 N3        30.32S
BRYCE CANYON   MOCLDY    28  18  66 SW5       30.29F WCI  23
CEDAR CITY     MOCLDY    46  19  34 NE7       30.11F
DELTA          CLOUDY    47  21  36 NE8       30.08F
HANKSVILLE       N/A     34  18  51 CALM      30.20F
MILFORD        MOCLDY    41  22  46 S5        30.10S
MOAB/CYNLANDS  CLEAR     41  20  43 W3        30.17F
PRICE          PTCLDY    41  18  39 N9        30.22S
ST GEORGE      PTSUNNY   61  21  21 SE8       30.04F
KANAB            N/A     48  19  32 N7        30.19S

$$

REGIONAL REPORTS     COLORADO/ARIZONA

CITY           SKY/WX    TMP DP  RH WIND       PRES   REMARKS
CRAIG, CO      CLEAR     26  22  84 W5        30.26F WCI  20
GRAND JUNCTION PTCLDY    37  25  61 E3        30.20S
RIFLE          CLEAR     35  25  66 CALM      30.26S
MONTROSE       CLEAR     37  25  61 SE7       30.28R WCI  32
CORTEZ         CLEAR     35  23  61 NE5       30.28R WCI  31
PAGE, AZ       PTCLDY    52  22  30 CALM      30.14F
GRAND CANYON   MOCLDY    30  16  56 E3        30.25F
KINGMAN        CLOUDY    62  33  33 SE9       30.03F
FLAGSTAFF      PTCLDY    34  22  61 CALM      30.28S

$$

REGIONAL REPORTS    NEVADA/IDAHO/WYOMING

CITY           SKY/WX    TMP DP  RH WIND       PRES   REMARKS
LAS VEGAS, NV  CLOUDY    66  30  26 SW7       29.91F
ELY            MOCLDY    49  24  37 S15       30.09F
ELKO           MOCLDY    45  21  38 VRB3      29.98F
POCATELLO, ID  CLEAR     36  31  82 N8        30.02F WCI  30
BURLEY         MOCLDY    43  31  62 NE5       29.96F
EVANSTON, WY   MOCLDY    45  21  38 S3        30.20F
ROCK SPRINGS   PTCLDY    41  25  53 SE8       30.22F
KEMMERER       MOCLDY    39  27  60 N12       30.23F WCI  32

$$



USA.gov is the U.S. government's official web portal to all federal, state and local government web resources and services.